(706) 295-7835

For Pilots

METAR

KRMG 141910Z AUTO 34006KT 10SM VCTS BKN027 OVC060 28/22 A2992 RMK AO2 LTG DSNT SW T02780217

Location & Communications

Get detailed information about the airport, provided by AirNav.

Pilot Services

We have fuel services, on-site repair and maintenance, 24-hour security and more.

Fuel Points

Russell Regional Airport is a Shell Aviation merchant and is proud to participate in the Shell Aero Class Rewards program!

Hangar Availability

RMG offers 66 various sized T-Hangars for tenants and visitors (upon availability). Below, you will find the sizes of the hangars offered at RMG. If […]

Today's Fuel Prices

Jet A $3.53 / gallon
AvGas (100LL) $4.68 / gallon
Self Serve AvGas $4.29 / gallon
Learn about fuel points program